EW2561 Weather Reports


Display with metric or nautical units.
time (UTC)temp
F
wind
direction
speed
MPH
gust
MPH
rain 1hr
in
rain 24hr
in
rain mn
in
humidity
%
barometer
mb
20240624132932 82 19 3.0 8.0 0.00 0.00 0.00 49 1016.8
20240624132432 82 105 3.0 8.0 0.00 0.00 0.00 51 1016.8
20240624131932 82 103 3.0 7.0 0.00 0.00 0.00 51 1016.7
20240624131430 82 342 2.0 6.0 0.00 0.00 0.00 50 1016.8
20240624130932 81 193 1.0 4.0 0.00 0.00 0.00 52 1016.8
20240624130428 82 332 2.0 4.0 0.00 0.00 0.00 55 1016.9
20240624125922 82 331 2.0 6.0 0.00 0.00 0.00 50 1016.9
20240624125403 82 159 2.0 7.0 0.00 0.00 0.00 52 1016.9
20240624124902 82 119 2.0 7.0 0.00 0.00 0.00 51 1017.0
20240624124403 82 131 2.0 6.0 0.00 0.00 0.00 53 1016.9
20240624123902 82 64 2.0 5.0 0.00 0.00 0.00 54 1017.1
20240624123402 81 124 2.0 5.0 0.00 0.00 0.00 53 1017.1
20240624122902 81 98 2.0 3.0 0.00 0.00 0.00 54 1017.1
20240624122404 81 158 2.0 6.0 0.00 0.00 0.00 51 1017.1
20240624121832 81 38 2.0 6.0 0.00 0.00 0.00 54 1017.1
20240624121331 80 6 2.0 6.0 0.00 0.00 0.00 53 1017.2
20240624120831 80 1 2.0 6.0 0.00 0.00 0.00 54 1017.2
20240624120331 81 134 2.0 6.0 0.00 0.00 0.00 54 1017.3
20240624115830 80 60 2.0 6.0 0.00 0.00 0.00 53 1017.3
20240624115331 80 51 2.0 6.0 0.00 0.00 0.00 56 1017.3
20240624114831 81 76 3.0 6.0 0.00 0.00 0.00 52 1017.5
20240624114330 80 37 3.0 7.0 0.00 0.00 0.00 52 1017.5
20240624113832 80 61 3.0 7.0 0.00 0.00 0.00 54 1017.5
20240624113553 80 92 2.0 7.0 0.00 0.00 0.00 54 1017.5
20240624112831 81 357 2.0 7.0 0.00 0.00 0.00 53 1017.5
20240624112333 81 339 2.0 6.0 0.00 0.00 0.00 57 1017.6
20240624111830 81 84 2.0 6.0 0.00 0.00 0.00 54 1017.7
20240624111333 80 1 2.0 6.0 0.00 0.00 0.00 55 1017.7
20240624110836 80 74 2.0 8.0 0.00 0.00 0.00 59 1017.7
20240624110337 79 74 3.0 8.0 0.00 0.00 0.00 56 1017.8
20240624105809 79 111 2.0 5.0 0.00 0.00 0.00 55 1017.8
20240624105309 79 37 2.0 5.0 0.00 0.00 0.00 57 1017.8
20240624105005 79 347 3.0 9.0 0.00 0.00 0.00 56 1017.9
20240624104229 80 121 2.0 9.0 0.00 0.00 0.00 57 1017.9
20240624103704 80 342 2.0 5.0 0.00 0.00 0.00 57 1018.0
20240624103131 80 38 2.0 7.0 0.00 0.00 0.00 59 1018.0
20240624102858 80 99 2.0 7.0 0.00 0.00 0.00 57 1018.0
20240624102105 80 12 2.0 6.0 0.00 0.00 0.00 58 1018.0
20240624101605 79 202 2.0 6.0 0.00 0.00 0.00 58 1018.1
20240624101035 79 11 1.0 4.0 0.00 0.00 0.00 59 1018.0
20240624100532 79 12 1.0 4.0 0.00 0.00 0.00 61 1018.1
20240624100005 78 336 2.0 6.0 0.00 0.00 0.00 61 1018.1
20240624095503 78 25 2.0 6.0 0.00 0.00 0.00 61 1018.2
20240624095004 78 80 2.0 6.0 0.00 0.00 0.00 61 1018.2
20240624094508 79 32 2.0 6.0 0.00 0.00 0.00 61 1018.3
20240624093939 79 89 2.0 6.0 0.00 0.00 0.00 61 1018.2
20240624093500 78 290 2.0 6.0 0.00 0.00 0.00 61 1018.3
20240624092950 78 79 2.0 4.0 0.00 0.00 0.00 61 1018.3
20240624092430 78 108 2.0 5.0 0.00 0.00 0.00 62 1018.4
20240624091925 78 182 2.0 5.0 0.00 0.00 0.00 63 1018.4
20240624091410 78 44 2.0 4.0 0.00 0.00 0.00 65 1018.4
20240624090839 78 98 2.0 4.0 0.00 0.00 0.00 64 1018.4
20240624090601 78 106 1.0 4.0 0.00 0.00 0.00 64 1018.5
20240624085831 78 52 1.0 4.0 0.00 0.00 0.00 68 1018.5
20240624085330 77 135 1.0 5.0 0.00 0.00 0.00 67 1018.5
20240624084822 77 79 1.0 5.0 0.00 0.00 0.00 66 1018.5
20240624084317 77 165 1.0 3.0 0.00 0.00 0.00 66 1018.6
20240624083805 77 27 1.0 4.0 0.00 0.00 0.00 69 1018.5
20240624083232 77 14 1.0 4.0 0.00 0.00 0.00 68 1018.5
20240624082955 76 109 1.0 3.0 0.00 0.00 0.00 69 1018.5
20240624082429 76 196 1.0 3.0 0.00 0.00 0.00 70 1018.5
20240624081704 75 70 1.0 3.0 0.00 0.00 0.00 69 1018.6
20240624081204 75 325 1.0 3.0 0.00 0.00 0.00 73 1018.6
20240624080926 75 39 1.0 3.0 0.00 0.00 0.00 71 1018.7
20240624080204 74 359 1.0 2.0 0.00 0.00 0.00 72 1018.7
20240624075205 72 137 1.0 2.0 0.00 0.00 0.00 77 1018.7
20240624074632 72 274 1.0 2.0 0.00 0.00 0.00 76 1018.7
20240624074132 72 267 1.0 2.0 0.00 0.00 0.00 77 1018.8
20240624073631 72 351 1.0 2.0 0.00 0.00 0.00 78 1018.7
20240624073131 72 255 1.0 3.0 0.00 0.00 0.00 78 1018.7
20240624072630 72 263 0.0 2.0 0.00 0.00 0.00 76 1018.8
20240624072119 72 76 0.0 2.0 0.00 0.00 0.00 78 1018.8
20240624071604 71 238 0.0 3.0 0.00 0.00 0.00 78 1018.8
20240624071102 70 115 1.0 3.0 0.00 0.00 0.00 79 1018.8
20240624070540 70 256 0.0 2.0 0.00 0.00 0.00 79 1018.8
20240624070031 70 198 0.0 2.0 0.00 0.00 0.00 78 1018.8
20240624065530 70 180 0.0 2.0 0.00 0.00 0.00 79 1018.8
20240624065232 69 178 0.0 2.0 0.00 0.00 0.00 83 1018.8
20240624064508 69 178 0.0 2.0 0.00 0.00 0.00 82 1018.7
20240624064003 68 275 0.0 2.0 0.00 0.00 0.00 83 1018.8
20240624063724 68 231 0.0 2.0 0.00 0.00 0.00 83 1018.8
20240624063013 68 219 0.0 1.0 0.00 0.00 0.00 83 1018.9
20240624062653 68 242 0.0 1.0 0.00 0.00 0.00 84 1018.8
20240624061935 68 232 0.0 1.0 0.00 0.00 0.00 85 1018.8
20240624061409 67 220 0.0 2.0 0.00 0.00 0.00 86 1018.8
20240624061135 67 175 0.0 2.0 0.00 0.00 0.00 86 1018.8
20240624060339 66 132 0.0 1.0 0.00 0.00 0.00 87 1018.7
20240624055831 66 86 0.0 0.0 0.00 0.00 0.00 87 1018.7
20240624055331 66 86 0.0 0.0 0.00 0.00 0.00 87 1018.7
20240624054830 66 75 0.0 0.0 0.00 0.00 0.00 88 1018.6
20240624054329 65 75 0.0 0.0 0.00 0.00 0.00 88 1018.6
20240624053820 64 75 0.0 0.0 0.00 0.00 0.00 90 1018.6
20240624053537 63 75 0.0 0.0 0.00 0.00 0.00 93 1018.6
20240624052803 62 75 0.0 0.0 0.00 0.00 0.00 93 1018.5
20240624052306 62 75 0.0 0.0 0.00 0.00 0.00 96 1018.5
20240624051804 61 75 0.0 0.0 0.00 0.00 0.00 97 1018.5
20240624051232 60 75 0.0 0.0 0.00 0.00 0.00 98 1018.5
20240624050736 59 75 0.0 0.0 0.00 0.00 0.00 98 1018.5
20240624050205 58 75 0.0 0.0 0.00 0.00 0.00 98 1018.5
20240624045632 57 75 0.0 0.0 0.00 0.00 0.00 97 1018.5
20240624045124 57 75 0.0 0.0 0.00 0.00 0.00 97 1018.5
20240624044622 56 75 0.0 0.0 0.00 0.00 0.00 97 1018.5
20240624044115 56 75 0.0 0.0 0.00 0.00 0.00 97 1018.6
20240624043603 56 75 0.0 0.0 0.00 0.00 0.00 97 1018.6
20240624043103 56 75 0.0 0.0 0.00 0.00 0.00 97 1018.5
20240624042532 56 75 0.0 0.0 0.00 0.00 0.00 96 1018.5
20240624042256 56 75 0.0 0.0 0.00 0.00 0.00 96 1018.6
20240624041532 56 75 0.0 0.0 0.00 0.00 0.00 96 1018.5
20240624041228 56 75 0.0 0.0 0.00 0.00 0.00 96 1018.5
20240624040505 56 75 0.0 0.0 0.00 0.00 0.00 96 1018.5
20240624035933 55 75 0.0 0.0 0.00 0.00 0.00 96 1018.5
20240624035431 55 75 0.0 0.0 0.00 0.00 0.00 96 1018.5
20240624034931 55 75 0.0 0.0 0.00 0.00 0.00 96 1018.5
20240624034649 55 75 0.0 0.0 0.00 0.00 0.00 96 1018.5
20240624033924 55 75 0.0 0.0 0.00 0.00 0.00 96 1018.4
20240624033418 55 75 0.0 0.0 0.00 0.00 0.00 96 1018.4
20240624032915 55 75 0.0 0.0 0.00 0.00 0.00 96 1018.4
20240624032403 55 75 0.0 0.0 0.00 0.00 0.00 96 1018.4
20240624031903 55 75 0.0 0.0 0.00 0.00 0.00 96 1018.4
20240624031404 56 75 0.0 0.0 0.00 0.00 0.00 96 1018.4
20240624030832 56 75 0.0 0.0 0.00 0.00 0.00 96 1018.4
20240624030332 56 75 0.0 0.0 0.00 0.00 0.00 95 1018.4
20240624025831 56 75 0.0 0.0 0.00 0.00 0.00 95 1018.3
20240624025332 56 75 0.0 0.0 0.00 0.00 0.00 95 1018.3
20240624024830 56 75 0.0 0.0 0.00 0.00 0.00 96 1018.4
20240624024337 56 75 0.0 0.0 0.00 0.00 0.00 96 1018.5
20240624023833 56 75 0.0 0.0 0.00 0.00 0.00 96 1018.5
20240624023330 56 75 0.0 0.0 0.00 0.00 0.00 96 1018.5
20240624022809 56 75 0.0 0.0 0.00 0.00 0.00 95 1018.5
20240624022305 56 75 0.0 0.0 0.00 0.00 0.00 95 1018.5
20240624022030 56 75 0.0 0.0 0.00 0.00 0.00 95 1018.5
20240624021233 56 75 0.0 0.0 0.00 0.00 0.00 95 1018.4
20240624020728 57 75 0.0 0.0 0.00 0.00 0.00 95 1018.6
20240624020204 57 75 0.0 0.0 0.00 0.00 0.00 95 1018.6
20240624015703 57 75 0.0 0.0 0.00 0.00 0.00 95 1018.5
20240624015205 57 75 0.0 0.0 0.00 0.00 0.00 95 1018.6
20240624014703 57 75 0.0 0.0 0.00 0.00 0.00 95 1018.6
20240624014204 57 75 0.0 0.0 0.00 0.00 0.00 95 1018.7
20240624013856 57 75 0.0 0.0 0.00 0.00 0.00 95 1018.7
20240624013356 57 75 0.0 0.0 0.00 0.00 0.00 95 1018.7
20240624013042 58 75 0.0 0.0 0.00 0.00 0.00 95 1018.7
20240624012807 57 75 0.0 0.0 0.00 0.00 0.00 95 1018.7
20240624011602 58 75 0.0 0.0 0.00 0.00 0.00 95 1018.7
20240624011031 58 75 0.0 0.0 0.00 0.00 0.00 95 1018.7
20240624010531 58 75 0.0 0.0 0.00 0.00 0.00 95 1018.7
20240624010028 58 75 0.0 0.0 0.00 0.00 0.00 95 1018.7
20240624005517 58 75 0.0 0.0 0.00 0.00 0.00 95 1018.7
20240624005003 58 75 0.0 0.0 0.00 0.00 0.00 95 1018.7
20240624004503 58 75 0.0 0.0 0.00 0.00 0.00 95 1018.7
20240624004004 58 75 0.0 0.0 0.00 0.00 0.00 95 1018.7
20240624003432 58 75 0.0 0.0 0.00 0.00 0.00 95 1018.8
20240624002931 58 75 0.0 0.0 0.00 0.00 0.00 95 1018.8
20240624002656 58 75 0.0 0.0 0.00 0.00 0.00 95 1018.8
20240624001930 58 75 0.0 0.0 0.00 0.00 0.00 95 1018.8
20240624001432 59 75 0.0 0.0 0.00 0.00 0.00 95 1018.8
20240624000931 59 75 0.0 0.0 0.00 0.00 0.00 95 1018.9
20240624000433 59 75 0.0 0.0 0.00 0.00 0.00 95 1018.8
20240623235905 59 75 0.0 0.0 0.00 0.00 0.00 95 1018.8
20240623235627 59 75 0.0 0.0 0.00 0.00 0.00 95 1018.8
20240623234831 59 75 0.0 0.0 0.00 0.00 0.00 94 1018.8
20240623234330 59 75 0.0 0.0 0.00 0.00 0.00 94 1018.8
20240623233828 59 75 0.0 0.0 0.00 0.00 0.00 94 1018.8
20240623233305 59 75 0.0 0.0 0.00 0.00 0.00 94 1018.8
20240623232802 59 75 0.0 0.0 0.00 0.00 0.00 94 1018.8
20240623232231 60 75 0.0 0.0 0.00 0.00 0.00 94 1018.8
20240623231732 60 75 0.0 0.0 0.00 0.00 0.00 94 1018.8
20240623231231 60 75 0.0 0.0 0.00 0.00 0.00 94 1018.8
20240623230732 60 75 0.0 0.0 0.00 0.00 0.00 94 1018.8
20240623230230 60 75 0.0 0.0 0.00 0.00 0.00 94 1018.8
20240623225730 60 75 0.0 0.0 0.00 0.00 0.00 94 1018.8
20240623225230 60 75 0.0 0.0 0.00 0.00 0.00 94 1018.8
20240623224738 60 75 0.0 0.0 0.00 0.00 0.00 94 1018.8
20240623224229 60 75 0.0 0.0 0.00 0.00 0.00 94 1018.8
20240623223726 60 75 0.0 0.0 0.00 0.00 0.00 94 1018.7
20240623223213 60 75 0.0 0.0 0.00 0.00 0.00 94 1018.7
20240623222709 61 75 0.0 0.0 0.00 0.00 0.00 94 1018.7
20240623222203 61 75 0.0 0.0 0.00 0.00 0.00 93 1018.7
20240623221631 61 75 0.0 0.0 0.00 0.00 0.00 93 1018.7
20240623221132 61 75 0.0 0.0 0.00 0.00 0.00 93 1018.6
20240623220633 61 75 0.0 0.0 0.00 0.00 0.00 93 1018.5
20240623220613 61 75 0.0 0.0 0.00 0.00 0.00 93 1018.5
20240623215624 61 75 0.0 0.0 0.00 0.00 0.00 92 1018.5
20240623215114 61 75 0.0 0.0 0.00 0.00 0.00 92 1018.5
20240623214609 62 75 0.0 0.0 0.00 0.00 0.00 92 1018.5
20240623214103 62 75 0.0 0.0 0.00 0.00 0.00 92 1018.4
20240623214019 62 75 0.0 0.0 0.00 0.00 0.00 91 1018.5
20240623213028 62 75 0.0 0.0 0.00 0.00 0.00 91 1018.5
20240623212736 62 75 0.0 0.0 0.00 0.00 0.00 91 1018.4
20240623212004 62 75 0.0 0.0 0.00 0.00 0.00 90 1018.4
20240623211724 63 75 0.0 0.0 0.00 0.00 0.00 90 1018.4
20240623211232 63 75 0.0 0.0 0.00 0.00 0.00 90 1018.3
20240623210506 63 75 0.0 0.0 0.00 0.00 0.00 90 1018.3
20240623205932 63 75 0.0 0.0 0.00 0.00 0.00 89 1018.4
20240623205432 64 75 0.0 0.0 0.00 0.00 0.00 89 1018.4
20240623204923 64 75 0.0 0.0 0.00 0.00 0.00 89 1018.3
20240623204403 64 75 0.0 0.0 0.00 0.00 0.00 88 1018.3
20240623203902 64 75 0.0 0.0 0.00 0.00 0.00 88 1018.2
20240623203331 64 75 0.0 0.0 0.00 0.00 0.00 87 1018.2
20240623202828 65 75 0.0 0.0 0.00 0.00 0.00 86 1018.2
20240623202523 65 75 0.0 0.0 0.00 0.00 0.00 86 1018.2
20240623201803 66 74 0.0 0.0 0.00 0.00 0.00 85 1018.2
20240623201307 66 74 0.0 0.0 0.00 0.00 0.00 84 1018.2
20240623200736 67 74 0.0 0.0 0.00 0.00 0.00 83 1018.1
20240623200220 67 74 0.0 0.0 0.00 0.00 0.00 83 1018.1
20240623195705 68 73 0.0 0.0 0.00 0.00 0.00 81 1018.1
20240623195205 68 74 0.0 0.0 0.00 0.00 0.00 80 1018.0
20240623194704 69 73 0.0 0.0 0.00 0.00 0.00 80 1018.0
20240623194425 69 74 0.0 0.0 0.00 0.00 0.00 79 1018.0
20240623194152 70 74 0.0 0.0 0.00 0.00 0.00 77 1017.9
20240623193132 70 73 0.0 0.0 0.00 0.00 0.00 76 1017.9
20240623192632 71 73 0.0 0.0 0.00 0.00 0.00 75 1017.8
20240623192130 72 73 0.0 0.0 0.00 0.00 0.00 74 1017.8
20240623191631 73 73 0.0 0.0 0.00 0.00 0.00 73 1017.8
20240623191129 73 73 0.0 2.0 0.00 0.00 0.00 71 1017.7
20240623190603 74 73 0.0 2.0 0.00 0.00 0.00 71 1017.7
20240623190103 75 73 1.0 3.0 0.00 0.00 0.00 64 1017.7
20240623185611 75 77 1.0 3.0 0.00 0.00 0.00 64 1017.7
20240623185102 75 51 0.0 2.0 0.00 0.00 0.00 62 1017.6
20240623184609 75 52 0.0 3.0 0.00 0.00 0.00 61 1017.7
20240623184110 75 359 1.0 3.0 0.00 0.00 0.00 62 1017.7
20240623183604 76 75 1.0 4.0 0.00 0.00 0.00 62 1017.6
20240623183104 76 6 2.0 4.0 0.00 0.00 0.00 61 1017.6
20240623182603 76 28 2.0 5.0 0.00 0.00 0.00 59 1017.6
20240623182031 76 6 2.0 5.0 0.00 0.00 0.00 58 1017.6
20240623181528 76 6 1.0 4.0 0.00 0.00 0.00 57 1017.6
20240623181250 76 358 1.0 4.0 0.00 0.00 0.00 56 1017.6
20240623180504 77 355 1.0 3.0 0.00 0.00 0.00 55 1017.6
20240623180007 77 1 1.0 5.0 0.00 0.00 0.00 54 1017.5
20240623175503 77 1 1.0 5.0 0.00 0.00 0.00 54 1017.6
20240623175455 77 1 2.0 5.0 0.00 0.00 0.00 56 1017.6
20240623174506 77 1 1.0 5.0 0.00 0.00 0.00 54 1017.5
20240623174003 77 1 1.0 3.0 0.00 0.00 0.00 54 1017.5
20240623173502 78 1 1.0 5.0 0.00 0.00 0.00 55 1017.5
20240623173003 78 353 1.0 5.0 0.00 0.00 0.00 54 1017.4
20240623172724 78 11 2.0 5.0 0.00 0.00 0.00 53 1017.4
20240623171933 79 30 1.0 5.0 0.00 0.00 0.00 53 1017.3
20240623171426 79 269 0.0 4.0 0.00 0.00 0.00 59 1017.3
20240623171121 79 309 1.0 4.0 0.00 0.00 0.00 59 1017.3
20240623170415 78 0 1.0 4.0 0.00 0.00 0.00 55 1017.3
20240623165909 78 359 1.0 4.0 0.00 0.00 0.00 57 1017.2
20240623165332 78 27 1.0 4.0 0.00 0.00 0.00 54 1017.2
20240623164831 77 11 1.0 4.0 0.00 0.00 0.00 61 1017.2
20240623164603 76 39 1.0 2.0 0.00 0.00 0.00 58 1017.2
20240623164053 76 21 1.0 4.0 0.00 0.00 0.00 60 1017.2
20240623163332 76 358 2.0 3.0 0.00 0.00 0.00 59 1017.2
20240623162822 76 1 2.0 4.0 0.00 0.00 0.00 59 1017.2
20240623162314 76 1 1.0 3.0 0.00 0.00 0.00 60 1017.2
20240623161803 75 277 1.0 4.0 0.00 0.00 0.00 69 1017.3
20240623161302 74 96 0.0 4.0 0.00 0.00 0.00 69 1017.4
20240623161032 74 185 0.0 0.0 0.00 0.00 0.00 77 1017.3
20240623160304 74 198 0.0 0.0 0.00 0.00 0.00 78 1017.3
20240623155808 74 217 0.0 1.0 0.00 0.00 0.00 79 1017.3
20240623155306 74 214 0.0 1.0 0.00 0.00 0.00 78 1017.3
20240623155028 74 214 0.0 0.0 0.00 0.00 0.00 76 1017.3
20240623154232 75 214 0.0 1.0 0.00 0.00 0.00 73 1017.3
20240623153735 76 214 0.0 1.0 0.00 0.00 0.00 74 1017.3
20240623153231 76 131 0.0 2.0 0.00 0.00 0.00 72 1017.3
20240623152730 76 160 0.0 2.0 0.00 0.00 0.00 68 1017.3
20240623152232 76 181 0.0 2.0 0.00 0.00 0.00 64 1017.3
20240623151730 76 205 1.0 2.0 0.00 0.00 0.00 65 1017.4
20240623151453 76 23 1.0 3.0 0.00 0.00 0.00 59 1017.4
20240623150730 76 124 1.0 3.0 0.00 0.00 0.00 61 1017.4
20240623150231 76 118 1.0 3.0 0.00 0.00 0.00 60 1017.4
20240623145730 76 69 1.0 3.0 0.00 0.00 0.00 61 1017.4
20240623145230 76 14 1.0 3.0 0.00 0.00 0.00 60 1017.5
20240623144949 77 87 1.0 4.0 0.00 0.00 0.00 59 1017.5
20240623144718 77 248 1.0 4.0 0.00 0.00 0.00 63 1017.5
20240623143952 77 340 1.0 4.0 0.00 0.00 0.00 61 1017.5
20240623143450 78 22 1.0 2.0 0.00 0.00 0.00 58 1017.5
20240623143435 77 32 1.0 4.0 0.00 0.00 0.00 58 1017.5
20240623142229 78 21 1.0 4.0 0.00 0.00 0.00 56 1017.5
20240623141721 79 142 1.0 3.0 0.00 0.00 0.00 59 1017.4
20240623141201 79 104 1.0 4.0 0.00 0.00 0.00 59 1017.4
20240623140856 79 8 1.0 3.0 0.00 0.00 0.00 57 1017.4
20240623140131 79 34 1.0 4.0 0.00 0.00 0.00 56 1017.5
20240623135629 79 281 1.0 5.0 0.00 0.00 0.00 56 1017.5
20240623135352 79 283 1.0 5.0 0.00 0.00 0.00 55 1017.5
20240623134902 79 119 1.0 4.0 0.00 0.00 0.00 55 1017.5
20240623134352 79 25 1.0 5.0 0.00 0.00 0.00 56 1017.6
20240623133607 78 186 2.0 5.0 0.00 0.00 0.00 57 1017.5